This demonstration page uses our WeatherBlox Daily Observations layout. Learn more.

41.55636, -103.73856

Hourly Observations for May 10, 2015

Temp ( °F °C ) Dew Point ( °F °C ) Humidity (%) Winds ( mph kmh ) Pressure ( in mb ) Visibility ( mi km ) Precip ( " mm )
12:16 am 00:16 Cloudy with Light Snow 30 -1 28 -2 93 93 N 18 30 30.09 1019 2 3.21868 0 0
12:53 am 00:53 Cloudy with Light Snow 31 -0.6 29 -1.7 92 92 NNW 8 13 30.02 1017 2 3.21868 0.01 0.254
1:01 am 01:01 Cloudy with Light Snow 31 -0.6 29 -1.7 92 92 NNW 8 13 30.12 1020 1.75 2.816345 0 0.0254
1:10 am 01:10 Cloudy with Light Snow 30 -1 28 -2 93 93 NW 8 13 30.12 1020 1.25 2.011675 0 0
1:35 am 01:35 Mostly Cloudy with Scattered Snow Showers 31 -0.6 30 -1.1 96 96 NW 13 20 30.12 1020 0.75 1.207005 0.04 1.016
1:42 am 01:42 Mostly Cloudy with Snow 30 -1 30 -1 100 100 NW 13 20 30.12 1020 0.5 0.80467 0 0
1:53 am 01:53 Mostly Cloudy with Snow 31 -0.6 30 -1.1 96 96 NNW 12 19 30.01 1016 0.5 0.80467 0.07 1.778
2:53 am 02:53 Mostly Cloudy with Scattered Snow Showers 31 -0.6 30 -1.1 96 96 NW 13 20 30.01 1016 0.75 1.207005 0.1 2.54
3:06 am 03:06 Cloudy with Light Snow 30 -1 30 -1 100 100 NW 12 19 30.06 1018 1 1.60934 0 0
3:48 am 03:48 Cloudy with Light Snow 30 -1 30 -1 100 100 NW 18 30 30.06 1018 1.25 2.011675 0 0
3:53 am 03:53 Cloudy with Light Snow 31 -0.6 30 -1.1 96 96 NW 18 30 29.98 1015 1.5 2.41401 0.03 0.762
4:11 am 04:11 Cloudy with Light Snow 31 -0.6 30 -1.1 96 96 NW 18 30 30.06 1018 2 3.21868 0.01 0.254
4:20 am 04:20 Cloudy with Light Snow 30 -1 30 -1 100 100 NW 18 30 30.06 1018 2 3.21868 0 0
4:46 am 04:46 Cloudy with Light Snow 30 -1 30 -1 100 100 NW 15 24 30.06 1018 1.75 2.816345 0 0
4:53 am 04:53 Cloudy with Light Snow 31 -0.6 30 -1.1 96 96 NW 14 22 30 1016 1 1.60934 0.02 0.508
5:01 am 05:01 Cloudy with Light Snow 31 -0.6 30 -1.1 96 96 NNW 15 24 30.06 1018 0.75 1.207005 0 0.0254
5:53 am 05:53 Mostly Cloudy with Snow 31 -0.6 30 -1.1 96 96 WNW 10 17 30.01 1016 0.5 0.80467 0.06 1.524
6:53 am 06:53 Mostly Cloudy with Snow 31 -0.6 30 -1.1 96 96 NNW 22 35 30.03 1017 0.25 0.402335 0.05 1.27
7:11 am 07:11 Partly Cloudy with Snow 32 0 30 -1.1 92 92 NNW 21 33 30.06 1018 0.25 0.402335 0.03 0.762
7:31 am 07:31 Mostly Cloudy with Snow 32 0 31 -0.6 96 96 NW 14 22 30.06 1018 0.25 0.402335 0.06 1.524
7:42 am 07:42 Mostly Cloudy with Snow 32 0 30 -1 93 93 WNW 13 20 30.06 1018 0.5 0.80467 0 0
7:53 am 07:53 Mostly Cloudy with Snow 32 0 31 -0.6 96 96 NW 14 22 30.04 1017 0.5 0.80467 0.08 2.032
8:33 am 08:33 Cloudy with Snow 33 0.6 32 0 96 96 WNW 23 37 30.06 1018 0.5 0.80467 0.04 1.016
8:53 am 08:53 Windy with Snow Likely 33 0.6 31 -0.6 92 92 NW 21 33 30.03 1017 0.75 1.207005 0.05 1.27
9:00 am 09:00 Windy with Snow Likely 34 1 30 -1 87 87 NW 20 31 30.06 1018 1 1.60934 0 0
9:22 am 09:22 Cloudy with Light Snow 34 1 32 0 93 93 WNW 17 28 30.06 1018 1.25 2.011675 0 0
9:36 am 09:36 Mostly Cloudy with Scattered Snow Showers 34 1.1 32 0 92 92 WNW 16 26 30.06 1018 3 4.82802 0 0.0254
9:43 am 09:43 Windy with Snow Likely 33 0.6 32 0 96 96 WNW 20 31 30.06 1018 1.75 2.816345 0 0.0254
9:53 am 09:53 Windy with Snow Likely 34 1.1 32 0 92 92 NW 20 31 30.03 1017 2 3.21868 0 0.0254
10:33 am 10:33 Windy with Snow Likely 34 1.1 32 0 92 92 NW 20 31 30.06 1018 3 4.82802 0 0.0254
10:53 am 10:53 Windy with Snow Likely 35 1.7 31 -0.6 85 85 NW 21 33 30.03 1017 4 6.43736 0 0.0254
11:53 am 11:53 Cloudy 35 1.7 31 -0.6 85 85 NW 23 37 30.05 1018 10 16.0934 0 0.0254
12:53 pm 12:53 Windy with Snow Likely 36 2.2 30 -1.1 79 79 NW 25 41 30.04 1017 4 6.43736 0 0.0254
1:05 pm 13:05 Windy with Snow Likely 36 2.2 31 -0.6 82 82 NW 21 33 30.09 1019 3 4.82802 0 0.0254
1:28 pm 13:28 Cloudy 36 2 30 -1 81 81 NW 22 35 30.09 1019 9 14.48406 0 0
1:51 pm 13:51 Windy with Snow Likely 36 2 30 -1 81 81 NW 23 37 30.09 1019 4 6.43736 0.01 0.254
1:53 pm 13:53 Windy with Snow Likely 36 2.2 30 -1.1 79 79 NW 25 41 30.06 1018 5 8.0467 0.01 0.254
2:16 pm 14:16 Cloudy 37 2.8 30 -1.1 76 76 NW 23 37 30.06 1018 10 16.0934 0 0.0254
2:53 pm 14:53 Cloudy 37 2.8 29 -1.7 73 73 NW 24 39 30.07 1018 10 16.0934 0 0.0254
3:53 pm 15:53 Cloudy 37 2.8 30 -1.1 76 76 NW 21 33 30.09 1019 10 16.0934 0 0
4:53 pm 16:53 Cloudy 37 2.8 30 -1.1 76 76 NW 25 41 30.1 1019 10 16.0934 0 0
5:18 pm 17:18 Cloudy 37 3 30 -1 75 75 NNW 22 35 30.12 1020 10 16.0934 0 0
5:53 pm 17:53 Cloudy 37 2.8 30 -1.1 76 76 NW 22 35 30.12 1020 10 16.0934 0 0
6:23 pm 18:23 Cloudy 37 2.8 30 -1.1 76 76 NNW 21 33 30.12 1020 10 16.0934 0 0
6:53 pm 18:53 Cloudy 37 2.8 30 -1.1 76 76 NW 24 39 30.13 1020 10 16.0934 0 0
7:39 pm 19:39 Mostly Cloudy 36 2.2 30 -1.1 79 79 NW 21 33 30.18 1022 10 16.0934 0 0
7:53 pm 19:53 Partly Cloudy 35 1.7 29 -1.7 78 78 NW 16 26 30.15 1021 10 16.0934 0 0
8:53 pm 20:53 Mostly Clear 34 1.1 29 -1.7 82 82 NW 20 31 30.17 1022 10 16.0934 0 0
9:53 pm 21:53 Clear 33 0.6 29 -1.7 85 85 WNW 14 22 30.19 1022 10 16.0934 0 0
10:53 pm 22:53 Clear 33 0.6 28 -2.2 82 82 WNW 12 19 30.18 1022 10 16.0934 0 0
11:53 pm 23:53 Clear 33 0.6 28 -2.2 82 82 WNW 15 24 30.17 1022 10 16.0934 0 0

Powered by AerisWeather